User: anonymous   Login
Location: Mat�lon
(46.2791°N, 7.1028°E)
Time: 03:03:51
(UTC+00:00)
Language:

Lacrosse 5 rocket - Orbit

View from above orbital plane
View from above orbital plane
View from above satellite
View from above satellite

Ground track
Ground track

The orbit data is extracted from the following two-line orbital elements,

1 28647U 05016B   21138.92807520  .00000347  00000-0  37809-4 0  9992
2 28647  56.9969 315.8291 0126500  30.8936 329.9466 15.06399936110502
Epoch (UTC): 18 May 2021 22:16:25
Eccentricity: 0.0126500
inclination: 56.9969°
perigee height: 459 km
apogee height: 635 km
right ascension of ascending node: 315.8291°
argument of perigee: 30.8936°
revolutions per day: 15.06399936
mean anomaly at epoch: 329.9466°
orbit number at epoch: 11050

The dashed part of the orbit path shows where the satellite is in the earth's shadow,  

DLR